Preview of NWS' New Version of Forecast
This preview is not operational and should not be used for support decisions.

Regional Weather Roundup (RWR)

Issued by Gray - Portland, ME (GYX)

                            
000
ASUS41 KGYX 181510
RWRGYX
WEATHER ROUNDUP FOR MAINE AND NEW HAMPSHIRE
NATIONAL WEATHER SERVICE GRAY ME
1100 AM EDT TUE JUN 18 2019

MEZ002-005-006-010-012-015-018-020-021-024-026-027-029-181600-
MAINE
  
CITY           SKY/WX    TMP DP  RH WIND       PRES   REMARKS
PORTLAND       CLOUDY    68  50  52 E5        30.00S                  
SANFORD        FAIR      70  49  47 E7        30.00S                  
BAR HARBOR     FAIR      72  45  37 S6        29.99F                  
WISCASSET      CLOUDY    68  53  58 CALM      30.01S                  
ROCKLAND       CLOUDY    64  52  64 NE5       30.00S                  
FRYEBURG       CLOUDY    68  52  56 CALM      30.02R                  
LEWISTONAUBURN CLOUDY    66  52  60 N3        30.01S                  
AUGUSTA        CLOUDY    67  51  56 VRB3      30.01S                  
WATERVILLE     FAIR      68  51  54 VRB3      29.98F                  
BANGOR         PTSUNNY   72  48  42 CALM      29.99F                  
GREENVILLE       N/A     68  41  37 SE3       29.98S                  
MILLINOCKET    FAIR      71  48  43 VRB5      29.99F                  
HOULTON        FAIR      69  44  40 VRB5      29.96F                  
PRESQUE ISLE   FAIR      68  42  38 VRB3      29.96F                  
FRENCHVILLE    FAIR      69  42  37 W8        29.94F                  
CARIBOU        FAIR      68  44  42 S8        29.94F                  
$$

NHZ002-005-008-009-011-012-014-181600-
NEW HAMPSHIRE
  
CITY           SKY/WX    TMP DP  RH WIND       PRES   REMARKS
PORTSMOUTH     CLOUDY    67  54  63 NE7       29.98S                  
ROCHESTER      FAIR      70  51  51 E5        29.99S                  
NASHUA         PTSUNNY   68  57  68 NE6       29.99S                  
MANCHESTER     CLOUDY    69  54  58 E7        29.97F                  
CONCORD        FAIR      69  53  56 VRB3      29.99F                  
LACONIA        FAIR      67  51  56 NE5       30.01S                  
PLYMOUTH       PTSUNNY   69  52  56 CALM      30.00S                  
BERLIN         CLOUDY    67  47  48 CALM      30.01F                  
WHITEFIELD     NOT AVBL                                               
JAFFREY        FAIR      67  53  61 VRB3      30.00F                  
KEENE          FAIR      68  53  58 N6        29.98F                  
LEBANON        FAIR      69  53  56 CALM      29.99F                  
MT WASHINGTON  CLOUDY    45  39  81 SW13        N/A                   
$$

VTZ005-007-008-181600-
VERMONT
  
CITY           SKY/WX    TMP DP  RH WIND       PRES   REMARKS
ST JOHNSBURY     N/A     67  51  56 MISG      29.98F                  
MONTPELIER     CLOUDY    67  49  52 CALM      30.04F                  
BURLINGTON     PTSUNNY   73  50  44 CALM      29.96F                  
$$

MAZ007-012-024-CTZ003-RIZ002-NYZ038-NYZ072-181600-
SOUTHERN NEW ENGLAND AND NY
  
CITY           SKY/WX    TMP DP  RH WIND       PRES   REMARKS
BOSTON         CLOUDY    69  61  75 E7        29.98S                  
WORCESTER      FAIR      65  58  78 VRB3      29.99F                  
NANTUCKET      CLOUDY    63  62  97 SE3       29.99F                  
PROVIDENCE     LGT RAIN  69  59  70 SE6       29.97F                  
HARTFORD       LGT RAIN  69  61  75 N7        29.96F                  
ALBANY         LGT RAIN  64  58  80 CALM      29.97S                  
NEW YORK CITY  CLOUDY    73  69  87 S8        29.93S                  
$$

ANZ081-ANZ082-ANZ150-NHZ014-MEZ023>029-181600-
COASTAL MARINE OBSERVATIONS
  
STATION/POSITION TIME  TEMP    WIND        PRES    WAVE
                       AIR SEA DIR/SP/G            HT/PER
                 (UTC) (F)     (DEG/KT/KT) (MB)    (FT/S)
ISLE OF SHOALS   1400   57      30/  6/  8 1015.0R
JEFFREYS LEDGE   1438      57                N/A     2/ 8
CASHES LEDGE BUO 1450   56 54  160/  2/  4 1016.1R   3/ 8
GEORGES BANK BUO 1450   52 48  130/  6/  8 1017.3F   4/ 8
$$

.............KEY..............
   WCI - WIND CHILL
   TC  - TEMPERATURE IN CELSIUS
   VSB - VISIBILITY IN MILES
   HX  - HEAT INDEX
   FAIR- INDICATES FEW OR NO CLOUDS BELOW 12,000 FT, WITH NO 
         SIGNIFICANT WEATHER AND/OR OBSTRUCTIONS TO VISIBILITY.